Location: Oundoundou
(13.6667°N, 13.5500°W)
Time: 19:48:39
(UTC+00:00)

Daily predictions for brighter satellites

Satellite Brightness Start Highest point End
(mag) Time Altitude Azimuth Time Altitude Azimuth Time Altitude Azimuth
Cosmos 773 Rocket 4.1 19:04:02 10° S 19:09:02 56° ESE 19:14:04 10° NNE
Cosmos 1805 Rocket 3.6 19:05:06 10° S 19:09:33 84° E 19:14:00 10° N
MONITOR-E 4.3 19:07:58 10° S 19:11:07 87° WSW 19:14:17 10° NNW
Atlas Centaur 2 1.9 19:09:14 10° NW 19:14:22 52° NNE 19:18:28 10° ESE
Cosmos 1151 Rocket 3.2 19:10:51 10° N 19:15:08 80° W 19:19:27 10° S
Cosmos 1844 3.8 19:10:56 10° NNW 19:16:44 88° ENE 19:22:30 10° SSE
SL-16 R/B 3.5 19:14:32 10° SW 19:19:51 43° WNW 19:25:11 10° N
Meteor 1-27 4.3 19:14:21 10° N 19:20:07 61° E 19:25:50 10° SSE
Cosmos 372 Rocket 4.3 19:15:56 10° N 19:20:45 42° ENE 19:25:34 10° SSE
Longmarch 3A Rocket 2.2 19:19:18 10° W 19:22:17 29° NNW 19:23:55 10° NE
Aurora 2 Rocket 4.3 19:19:55 10° SW 19:25:19 41° SSE 19:32:15 12° E
Sich 1 3.0 19:22:57 10° S 19:27:22 85° E 19:31:49 10° N
Cosmos 1455 3.5 19:25:34 10° NE 19:28:25 20° E 19:31:17 10° SE
Ariane H10 4.2 19:26:50 10° WSW 19:31:27 18° SSW 19:33:53 10° SSE
Cosmos 1726 3.8 19:29:30 10° NNW 19:33:02 38° W 19:36:33 10° SSW
Helios 1B rocket 3.5 19:30:54 11° NE 19:34:00 25° E 19:37:23 10° SSE
FREGAT/IRIS 3.5 19:31:47 10° SE 19:34:26 27° ENE 19:37:05 10° NNE
Cosmos 1633 Rocket 3.1 19:30:09 10° S 19:34:34 90° N 19:38:59 10° N
Cosmos 1484 Rocket 4.4 19:33:10 10° S 19:36:46 39° W 19:40:26 10° NNW
USA 229 DEB 4.5 19:32:54 10° SW 19:39:30 52° WNW 19:46:09 10° N
USA 229 4.4 19:32:59 10° SW 19:39:36 53° WNW 19:46:16 10° NNE
Elektron 3 4.1 19:40:46 10° NNW 19:43:38 67° WSW 19:46:59 10° SSE
Aureole 1 Rocket 3.9 19:40:23 10° SSW 19:44:26 58° WNW 19:49:49 10° N
Intelsat 5-1 Rocket 3.3 19:42:10 10° NNW 19:44:39 22° NNE 19:46:09 18° NE
GPS 2-04 Rocket1 4.4 19:41:10 10° WNW 19:45:09 36° SW 19:49:04 10° SSE
Cosmos 2297 4.3 19:41:17 10° N 19:46:23 33° ENE 19:51:29 10° SE
NOSS 3-1 (A) 3.6 19:48:37 10° S 19:53:52 42° ESE 19:56:49 24° NE
Centaur D-1AR AC-41 3.4 19:46:44 10° WNW 19:54:28 63° SSW 19:57:25 15° ESE
SEDSat Delta rocket 3.5 19:49:09 10° NW 19:54:31 52° NNE 19:56:56 27° E
Spot 2 Rocket 4.2 19:51:07 10° SE 19:55:31 30° ENE 19:59:53 10° NNE
FENGYUN 3A 4.1 19:52:06 10° SE 19:56:57 36° ENE 20:01:47 10° N
Cosmos 1943 3.4 19:54:22 10° S 19:59:46 49° ESE 20:02:51 24° NE
METEOR-M 4.1 19:57:08 10° S 20:02:29 85° WSW 20:07:51 10° NNW
Cosmos 1869 4.0 20:03:50 34° ESE 20:03:50 34° ESE 20:06:53 10° SSE
HJ-1C 3.7 20:00:43 10° SSE 20:03:43 46° E 20:03:43 46° E
Resurs 01 Rocket 2.0 20:00:10 10° SE 20:04:18 39° ENE 20:05:34 32° NE
Transit 2A Rocket 4.4 20:00:41 10° NNW 20:04:59 70° ENE 20:09:31 10° SSE
Hubble Space Telescope 0.7 20:01:05 10° WNW 20:05:13 84° SSW 20:06:57 34° ESE
Genesis I 3.1 20:04:32 10° SSW 20:08:25 89° ESE 20:09:43 41° NNE
Iridium 4 Rocket 3.8 20:07:29 10° S 20:12:23 61° W 20:16:52 10° N
Cosmos 1707 Rocket 4.3 20:08:57 10° NNW 20:13:10 54° W 20:17:25 10° S
FengYun 1-2 T 4.2 20:07:55 10° SSE 20:13:26 60° ENE 20:18:53 10° N
Timation 1 Rocket 4.2 20:09:17 10° NNW 20:15:17 74° ENE 20:21:15 10° SSE
Cosmos 1933 Rocket 4.2 20:15:55 10° SSW 20:20:14 56° W 20:24:29 11° N
GPS 2-15 Rocket1 3.1 20:15:53 10° WNW 20:20:38 63° NNE 20:21:10 58° NE
ALOS 2.1 20:16:47 10° SSE 20:21:27 77° ENE 20:26:05 10° N
GPS 2-14 Rocket1 3.0 20:20:07 10° WNW 20:23:40 55° NNW 20:23:40 55° NNW
Lacrosse 5 rocket 3.7 20:22:54 10° NNW 20:23:14 12° NNW 20:23:14 12° NNW
Cosmos 2026 Rocket 4.0 20:21:03 10° S 20:27:21 85° W 20:33:33 10° N
OAO 3 Rocket 3.3 20:23:56 10° WNW 20:28:46 71° SW 20:29:49 52° SSE
SL-19 R/B 4.5 20:26:20 10° SSE 20:32:40 83° WSW 20:38:31 10° NNW
NOSS 3-1 (C) 3.9 20:27:23 10° SW 20:32:48 50° WNW 20:36:05 24° N
ARIANE 44LP R/B 4.0 20:39:58 10° SW 20:41:13 23° SSW 20:41:13 23° SSW
ERBS 4.4 20:39:42 10° SW 20:41:21 26° SW 20:41:21 26° SW
Atlas Centaur 2 3.6 20:59:28 10° W 21:02:05 22° SW 21:02:05 22° SW
Meteor 2-3 Rocket 4.3 20:58:15 10° S 21:02:20 49° SSW 21:02:20 49° SSW
Aurora 2 Rocket 4.1 21:12:20 10° WSW 21:18:57 73° NW 21:18:57 73° NW
Milstar 3 3.4 21:25:48 10° WNW 21:31:16 62° WNW 21:31:16 62° WNW
Centaur AC-72 4.2 21:26:36 10° WNW 21:33:58 75° NNE 22:29:15 10° E
Centaur AC-72 4.2 21:26:36 10° WNW 21:33:59 75° NNE 22:29:15 10° E
ATLAS 2AS CENTAUR R/B 4.4 21:44:21 10° SSW 21:46:53 25° SSW 21:46:53 25° SSW
